Year,Month,Day,Hour,Minute,Value (Times are PST for temperature in C)
2006,08,13,00,00,15.10
2006,08,13,00,01,15.00
2006,08,13,00,02,15.00
2006,08,13,00,03,15.00
2006,08,13,00,04,15.00
2006,08,13,00,05,15.00
2006,08,13,00,06,15.00
2006,08,13,00,07,15.00
2006,08,13,00,08,15.10
2006,08,13,00,09,15.10
2006,08,13,00,10,15.10
2006,08,13,00,11,15.10
2006,08,13,00,12,15.10
2006,08,13,00,13,15.20
2006,08,13,00,14,15.20
2006,08,13,00,15,15.20
2006,08,13,00,16,15.10
2006,08,13,00,17,15.10
2006,08,13,00,18,15.10
2006,08,13,00,19,15.20
2006,08,13,00,20,15.20
2006,08,13,00,21,15.10
2006,08,13,00,22,15.10
2006,08,13,00,23,15.10
2006,08,13,00,24,15.10
2006,08,13,00,25,15.10
2006,08,13,00,26,15.10
2006,08,13,00,27,15.10
2006,08,13,00,28,15.10
2006,08,13,00,29,15.00
2006,08,13,00,30,15.00
2006,08,13,00,31,14.90
2006,08,13,00,32,14.90
2006,08,13,00,33,14.90
2006,08,13,00,34,14.90
2006,08,13,00,35,14.90
2006,08,13,00,36,14.80
2006,08,13,00,37,14.80
2006,08,13,00,38,14.80
2006,08,13,00,39,14.80
2006,08,13,00,40,14.80
2006,08,13,00,41,14.80
2006,08,13,00,42,14.70
2006,08,13,00,43,14.70
2006,08,13,00,44,14.60
2006,08,13,00,45,14.60
2006,08,13,00,46,14.50
2006,08,13,00,47,14.50
2006,08,13,00,48,14.40
2006,08,13,00,49,14.30
2006,08,13,00,50,14.20
2006,08,13,00,51,14.20
2006,08,13,00,52,14.20
2006,08,13,00,53,14.10
2006,08,13,00,54,14.10
2006,08,13,00,55,14.10
2006,08,13,00,56,14.00
2006,08,13,00,57,13.90
2006,08,13,00,58,13.90
2006,08,13,00,59,13.80
2006,08,13,01,00,13.80
2006,08,13,01,01,13.80
2006,08,13,01,02,13.80
2006,08,13,01,03,13.80
2006,08,13,01,04,13.80
2006,08,13,01,05,13.80
2006,08,13,01,06,13.80
2006,08,13,01,07,13.80
2006,08,13,01,08,13.80
2006,08,13,01,09,13.80
2006,08,13,01,10,13.80
2006,08,13,01,11,13.80
2006,08,13,01,12,13.90
2006,08,13,01,13,13.90
2006,08,13,01,14,13.90
2006,08,13,01,15,13.90
2006,08,13,01,16,13.90
2006,08,13,01,17,13.90
2006,08,13,01,18,13.90
2006,08,13,01,19,13.90
2006,08,13,01,20,14.00
2006,08,13,01,21,14.00
2006,08,13,01,22,14.00
2006,08,13,01,23,14.00
2006,08,13,01,24,14.00
2006,08,13,01,25,14.00
2006,08,13,01,26,14.00
2006,08,13,01,27,14.00
2006,08,13,01,28,14.00
2006,08,13,01,29,13.90
2006,08,13,01,30,13.90
2006,08,13,01,31,13.90
2006,08,13,01,32,13.90
2006,08,13,01,33,14.00
2006,08,13,01,34,14.00
2006,08,13,01,35,14.00
2006,08,13,01,36,14.00
2006,08,13,01,37,14.00
2006,08,13,01,38,14.00
2006,08,13,01,39,14.00
2006,08,13,01,40,14.00
2006,08,13,01,41,14.00
2006,08,13,01,42,14.00
2006,08,13,01,43,14.00
2006,08,13,01,44,14.00
2006,08,13,01,45,14.00
2006,08,13,01,46,14.00
2006,08,13,01,47,14.00
2006,08,13,01,48,13.90
2006,08,13,01,49,13.90
2006,08,13,01,50,13.90
2006,08,13,01,51,13.90
2006,08,13,01,52,13.90
2006,08,13,01,53,13.90
2006,08,13,01,54,13.90
2006,08,13,01,55,13.90
2006,08,13,01,56,13.90
2006,08,13,01,57,13.90
2006,08,13,01,58,13.80
2006,08,13,01,59,13.80
2006,08,13,02,00,13.80
2006,08,13,02,01,13.80
2006,08,13,02,02,13.70
2006,08,13,02,03,13.70
2006,08,13,02,04,13.70
2006,08,13,02,05,13.60
2006,08,13,02,06,13.60
2006,08,13,02,07,13.60
2006,08,13,02,08,13.50
2006,08,13,02,09,13.50
2006,08,13,02,10,13.50
2006,08,13,02,11,13.50
2006,08,13,02,12,13.50
2006,08,13,02,13,13.50
2006,08,13,02,14,13.50
2006,08,13,02,15,13.50
2006,08,13,02,16,13.40
2006,08,13,02,17,13.40
2006,08,13,02,18,13.40
2006,08,13,02,19,13.40
2006,08,13,02,20,13.40
2006,08,13,02,21,13.40
2006,08,13,02,22,13.40
2006,08,13,02,23,13.40
2006,08,13,02,24,13.40
2006,08,13,02,25,13.40
2006,08,13,02,26,13.40
2006,08,13,02,27,13.40
2006,08,13,02,28,13.40
2006,08,13,02,29,13.40
2006,08,13,02,30,13.40
2006,08,13,02,31,13.40
2006,08,13,02,32,13.40
2006,08,13,02,33,13.30
2006,08,13,02,34,13.30
2006,08,13,02,35,13.30
2006,08,13,02,36,13.30
2006,08,13,02,37,13.30
2006,08,13,02,38,13.30
2006,08,13,02,39,13.30
2006,08,13,02,40,13.20
2006,08,13,02,41,13.20
2006,08,13,02,42,13.10
2006,08,13,02,43,13.10
2006,08,13,02,44,13.10
2006,08,13,02,45,13.10
2006,08,13,02,46,13.00
2006,08,13,02,47,13.10
2006,08,13,02,48,13.10
2006,08,13,02,49,13.10
2006,08,13,02,50,13.10
2006,08,13,02,51,13.10
2006,08,13,02,52,13.10
2006,08,13,02,53,13.10
2006,08,13,02,54,13.10
2006,08,13,02,55,13.10
2006,08,13,02,56,13.10
2006,08,13,02,57,13.10
2006,08,13,02,58,13.00
2006,08,13,02,59,13.00
2006,08,13,03,00,13.00
2006,08,13,03,01,13.00
2006,08,13,03,02,13.00
2006,08,13,03,03,13.00
2006,08,13,03,04,13.00
2006,08,13,03,05,12.90
2006,08,13,03,06,12.90
2006,08,13,03,07,12.80
2006,08,13,03,08,12.80
2006,08,13,03,09,12.70
2006,08,13,03,10,12.70
2006,08,13,03,11,12.60
2006,08,13,03,12,12.50
2006,08,13,03,13,12.50
2006,08,13,03,14,12.40
2006,08,13,03,15,12.40
2006,08,13,03,16,12.40
2006,08,13,03,17,12.30
2006,08,13,03,18,12.30
2006,08,13,03,19,12.30
2006,08,13,03,20,12.30
2006,08,13,03,21,12.20
2006,08,13,03,22,12.20
2006,08,13,03,23,12.10
2006,08,13,03,24,12.10
2006,08,13,03,25,12.10
2006,08,13,03,26,12.10
2006,08,13,03,27,12.10
2006,08,13,03,28,12.10
2006,08,13,03,29,12.00
2006,08,13,03,30,12.00
2006,08,13,03,31,12.00
2006,08,13,03,32,11.90
2006,08,13,03,33,11.90
2006,08,13,03,34,11.90
2006,08,13,03,35,11.90
2006,08,13,03,36,11.90
2006,08,13,03,37,11.80
2006,08,13,03,38,11.90
2006,08,13,03,39,11.90
2006,08,13,03,40,11.90
2006,08,13,03,41,11.90
2006,08,13,03,42,11.90
2006,08,13,03,43,11.90
2006,08,13,03,44,12.00
2006,08,13,03,45,12.00
2006,08,13,03,46,12.00
2006,08,13,03,47,12.10
2006,08,13,03,48,12.00
2006,08,13,03,49,12.00
2006,08,13,03,50,12.00
2006,08,13,03,51,12.00
2006,08,13,03,52,12.00
2006,08,13,03,53,12.00
2006,08,13,03,54,12.00
2006,08,13,03,55,12.00
2006,08,13,03,56,12.00
2006,08,13,03,57,12.00
2006,08,13,03,58,12.00
2006,08,13,03,59,12.00
2006,08,13,04,00,12.10
2006,08,13,04,01,12.10
2006,08,13,04,02,12.10
2006,08,13,04,03,12.10
2006,08,13,04,04,12.10
2006,08,13,04,05,12.10
2006,08,13,04,06,12.10
2006,08,13,04,07,12.10
2006,08,13,04,08,12.10
2006,08,13,04,09,12.10
2006,08,13,04,10,12.10
2006,08,13,04,11,12.10
2006,08,13,04,12,12.00
2006,08,13,04,13,12.00
2006,08,13,04,14,11.90
2006,08,13,04,15,11.90
2006,08,13,04,16,11.80
2006,08,13,04,17,11.80
2006,08,13,04,18,11.80
2006,08,13,04,19,11.80
2006,08,13,04,20,11.80
2006,08,13,04,21,11.80
2006,08,13,04,22,11.80
2006,08,13,04,23,11.80
2006,08,13,04,24,11.80
2006,08,13,04,25,11.80
2006,08,13,04,26,11.80
2006,08,13,04,27,11.80
2006,08,13,04,28,11.80
2006,08,13,04,29,11.80
2006,08,13,04,30,11.80
2006,08,13,04,31,11.80
2006,08,13,04,32,11.80
2006,08,13,04,33,11.80
2006,08,13,04,34,11.80
2006,08,13,04,35,11.80
2006,08,13,04,36,11.80
2006,08,13,04,37,11.80
2006,08,13,04,38,11.80
2006,08,13,04,39,11.80
2006,08,13,04,40,11.80
2006,08,13,04,41,11.70
2006,08,13,04,42,11.70
2006,08,13,04,43,11.70
2006,08,13,04,44,11.80
2006,08,13,04,45,11.80
2006,08,13,04,46,11.80
2006,08,13,04,47,11.80
2006,08,13,04,48,11.80
2006,08,13,04,49,11.80
2006,08,13,04,50,11.80
2006,08,13,04,51,11.80
2006,08,13,04,52,11.80
2006,08,13,04,53,11.80
2006,08,13,04,54,11.80
2006,08,13,04,55,11.80
2006,08,13,04,56,11.80
2006,08,13,04,57,11.80
2006,08,13,04,58,11.80
2006,08,13,04,59,11.80
2006,08,13,05,00,11.80
2006,08,13,05,01,11.80
2006,08,13,05,02,11.80
2006,08,13,05,03,11.80
2006,08,13,05,04,11.80
2006,08,13,05,05,11.80
2006,08,13,05,06,11.80
2006,08,13,05,07,11.80
2006,08,13,05,08,11.80
2006,08,13,05,09,11.80
2006,08,13,05,10,11.80
2006,08,13,05,11,11.80
2006,08,13,05,12,11.80
2006,08,13,05,13,11.80
2006,08,13,05,14,11.80
2006,08,13,05,15,11.80
2006,08,13,05,16,11.80
2006,08,13,05,17,11.80
2006,08,13,05,18,11.80
2006,08,13,05,19,11.80
2006,08,13,05,20,11.80
2006,08,13,05,21,11.80
2006,08,13,05,22,11.80
2006,08,13,05,23,11.80
2006,08,13,05,24,11.80
2006,08,13,05,25,11.80
2006,08,13,05,26,11.80
2006,08,13,05,27,11.80
2006,08,13,05,28,11.80
2006,08,13,05,29,11.80
2006,08,13,05,30,11.80
2006,08,13,05,31,11.80
2006,08,13,05,32,11.80
2006,08,13,05,33,11.80
2006,08,13,05,34,11.80
2006,08,13,05,35,11.80
2006,08,13,05,36,11.80
2006,08,13,05,37,11.80
2006,08,13,05,38,11.80
2006,08,13,05,39,11.70
2006,08,13,05,40,11.70
2006,08,13,05,41,11.70
2006,08,13,05,42,11.70
2006,08,13,05,43,11.70
2006,08,13,05,44,11.60
2006,08,13,05,45,11.60
2006,08,13,05,46,11.60
2006,08,13,05,47,11.60
2006,08,13,05,48,11.60
2006,08,13,05,49,11.60
2006,08,13,05,50,11.60
2006,08,13,05,51,11.60
2006,08,13,05,52,11.60
2006,08,13,05,53,11.60
2006,08,13,05,54,11.60
2006,08,13,05,55,11.60
2006,08,13,05,56,11.60
2006,08,13,05,57,11.60
2006,08,13,05,58,11.60
2006,08,13,05,59,11.60
2006,08,13,06,00,11.60
2006,08,13,06,01,11.70
2006,08,13,06,02,11.70
2006,08,13,06,03,11.70
2006,08,13,06,04,11.60
2006,08,13,06,05,11.60
2006,08,13,06,06,11.60
2006,08,13,06,07,11.60
2006,08,13,06,08,11.60
2006,08,13,06,09,11.60
2006,08,13,06,10,11.60
2006,08,13,06,11,11.60
2006,08,13,06,12,11.60
2006,08,13,06,13,11.60
2006,08,13,06,14,11.70
2006,08,13,06,15,11.70
2006,08,13,06,16,11.70
2006,08,13,06,17,11.70
2006,08,13,06,18,11.70
2006,08,13,06,19,11.70
2006,08,13,06,20,11.60
2006,08,13,06,21,11.60
2006,08,13,06,22,11.60
2006,08,13,06,23,11.60
2006,08,13,06,24,11.60
2006,08,13,06,25,11.60
2006,08,13,06,26,11.60
2006,08,13,06,27,11.60
2006,08,13,06,28,11.60
2006,08,13,06,29,11.60
2006,08,13,06,30,11.60
2006,08,13,06,31,11.60
2006,08,13,06,32,11.70
2006,08,13,06,33,11.70
2006,08,13,06,34,11.80
2006,08,13,06,35,11.80
2006,08,13,06,36,11.80
2006,08,13,06,37,11.90
2006,08,13,06,38,11.90
2006,08,13,06,39,12.00
2006,08,13,06,40,12.00
2006,08,13,06,41,12.10
2006,08,13,06,42,12.10
2006,08,13,06,43,12.20
2006,08,13,06,44,12.20
2006,08,13,06,45,12.30
2006,08,13,06,46,12.30
2006,08,13,06,47,12.30
2006,08,13,06,48,12.30
2006,08,13,06,49,12.40
2006,08,13,06,50,12.40
2006,08,13,06,51,12.40
2006,08,13,06,52,12.50
2006,08,13,06,53,12.50
2006,08,13,06,54,12.60
2006,08,13,06,55,12.60
2006,08,13,06,56,12.70
2006,08,13,06,57,12.70
2006,08,13,06,58,12.80
2006,08,13,06,59,12.80
2006,08,13,07,00,12.80
2006,08,13,07,01,12.80
2006,08,13,07,02,12.90
2006,08,13,07,03,12.90
2006,08,13,07,04,12.90
2006,08,13,07,05,12.90
2006,08,13,07,06,12.90
2006,08,13,07,07,12.90
2006,08,13,07,08,13.00
2006,08,13,07,09,13.00
2006,08,13,07,10,13.00
2006,08,13,07,11,13.10
2006,08,13,07,12,13.10
2006,08,13,07,13,13.20
2006,08,13,07,14,13.20
2006,08,13,07,15,13.20
2006,08,13,07,16,13.30
2006,08,13,07,17,13.30
2006,08,13,07,18,13.40
2006,08,13,07,19,13.40
2006,08,13,07,20,13.50
2006,08,13,07,21,13.60
2006,08,13,07,22,13.60
2006,08,13,07,23,13.60
2006,08,13,07,24,13.70
2006,08,13,07,25,13.70
2006,08,13,07,26,13.70
2006,08,13,07,27,13.70
2006,08,13,07,28,13.70
2006,08,13,07,29,13.80
2006,08,13,07,30,13.80
2006,08,13,07,31,13.80
2006,08,13,07,32,13.90
2006,08,13,07,33,13.90
2006,08,13,07,34,13.90
2006,08,13,07,35,13.90
2006,08,13,07,36,14.00
2006,08,13,07,37,14.00
2006,08,13,07,38,13.90
2006,08,13,07,39,13.90
2006,08,13,07,40,14.00
2006,08,13,07,41,14.00
2006,08,13,07,42,14.00
2006,08,13,07,43,14.10
2006,08,13,07,44,14.10
2006,08,13,07,45,14.20
2006,08,13,07,46,14.20
2006,08,13,07,47,14.30
2006,08,13,07,48,14.40
2006,08,13,07,49,14.50
2006,08,13,07,50,14.70
2006,08,13,07,51,14.80
2006,08,13,07,52,15.00
2006,08,13,07,53,15.10
2006,08,13,07,54,15.10
2006,08,13,07,55,15.20
2006,08,13,07,56,15.20
2006,08,13,07,57,15.30
2006,08,13,07,58,15.30
2006,08,13,07,59,15.40
2006,08,13,08,00,15.40
2006,08,13,08,01,15.50
2006,08,13,08,02,15.50
2006,08,13,08,03,15.60
2006,08,13,08,04,15.70
2006,08,13,08,05,15.80
2006,08,13,08,06,15.80
2006,08,13,08,07,15.90
2006,08,13,08,08,15.90
2006,08,13,08,09,16.10
2006,08,13,08,10,16.20
2006,08,13,08,11,16.20
2006,08,13,08,12,16.30
2006,08,13,08,13,16.40
2006,08,13,08,14,16.50
2006,08,13,08,15,16.60
2006,08,13,08,16,16.70
2006,08,13,08,17,16.70
2006,08,13,08,18,16.70
2006,08,13,08,19,16.80
2006,08,13,08,20,16.80
2006,08,13,08,21,16.80
2006,08,13,08,22,16.90
2006,08,13,08,23,16.90
2006,08,13,08,24,17.00
2006,08,13,08,25,17.00
2006,08,13,08,26,17.00
2006,08,13,08,27,17.10
2006,08,13,08,28,17.20
2006,08,13,08,29,17.20
2006,08,13,08,30,17.20
2006,08,13,08,31,17.20
2006,08,13,08,32,17.20
2006,08,13,08,33,17.20
2006,08,13,08,34,17.20
2006,08,13,08,35,17.20
2006,08,13,08,36,17.20
2006,08,13,08,37,17.20
2006,08,13,08,38,17.20
2006,08,13,08,39,17.20
2006,08,13,08,40,17.20
2006,08,13,08,41,17.20
2006,08,13,08,42,17.20
2006,08,13,08,43,17.30
2006,08,13,08,44,17.30
2006,08,13,08,45,17.30
2006,08,13,08,46,17.30
2006,08,13,08,47,17.30
2006,08,13,08,48,17.30
2006,08,13,08,49,17.30
2006,08,13,08,50,17.30
2006,08,13,08,51,17.30
2006,08,13,08,52,17.30
2006,08,13,08,53,17.30
2006,08,13,08,54,17.40
2006,08,13,08,55,17.40
2006,08,13,08,56,17.50
2006,08,13,08,57,17.50
2006,08,13,08,58,17.40
2006,08,13,08,59,17.50
2006,08,13,09,00,17.50
2006,08,13,09,01,17.50
2006,08,13,09,02,17.50
2006,08,13,09,03,17.50
2006,08,13,09,04,17.50
2006,08,13,09,05,17.60
2006,08,13,09,06,17.60
2006,08,13,09,07,17.60
2006,08,13,09,08,17.60
2006,08,13,09,09,17.60
2006,08,13,09,10,17.60
2006,08,13,09,11,17.70
2006,08,13,09,12,17.80
2006,08,13,09,13,17.90
2006,08,13,09,14,17.90
2006,08,13,09,15,17.90
2006,08,13,09,16,17.90
2006,08,13,09,17,17.90
2006,08,13,09,18,17.90
2006,08,13,09,19,17.90
2006,08,13,09,20,17.90
2006,08,13,09,21,17.80
2006,08,13,09,22,17.80
2006,08,13,09,23,17.80
2006,08,13,09,24,17.80
2006,08,13,09,25,17.80
2006,08,13,09,26,17.80
2006,08,13,09,27,17.80
2006,08,13,09,28,17.80
2006,08,13,09,29,17.80
2006,08,13,09,30,17.90
2006,08,13,09,31,17.90
2006,08,13,09,32,17.90
2006,08,13,09,33,17.90
2006,08,13,09,34,17.90
2006,08,13,09,35,17.90
2006,08,13,09,36,17.90
2006,08,13,09,37,17.90
2006,08,13,09,38,17.90
2006,08,13,09,39,18.10
2006,08,13,09,40,18.10
2006,08,13,09,41,18.10
2006,08,13,09,42,18.10
2006,08,13,09,43,18.10
2006,08,13,09,44,18.10
2006,08,13,09,45,18.10
2006,08,13,09,46,18.10
2006,08,13,09,47,18.10
2006,08,13,09,48,18.10
2006,08,13,09,49,18.10
2006,08,13,09,50,18.10
2006,08,13,09,51,18.10
2006,08,13,09,52,18.20
2006,08,13,09,53,18.20
2006,08,13,09,54,18.20
2006,08,13,09,55,18.30
2006,08,13,09,56,18.40
2006,08,13,09,57,18.40
2006,08,13,09,58,18.40
2006,08,13,09,59,18.40
2006,08,13,10,00,18.50
2006,08,13,10,01,18.50
2006,08,13,10,02,18.60
2006,08,13,10,03,18.60
2006,08,13,10,04,18.60
2006,08,13,10,05,18.50
2006,08,13,10,06,18.50
2006,08,13,10,07,18.50
2006,08,13,10,08,18.50
2006,08,13,10,09,18.50
2006,08,13,10,10,18.50
2006,08,13,10,11,18.50
2006,08,13,10,12,18.60
2006,08,13,10,13,18.60
2006,08,13,10,14,18.70
2006,08,13,10,15,18.80
2006,08,13,10,16,18.80
2006,08,13,10,17,18.80
2006,08,13,10,18,18.80
2006,08,13,10,19,18.80
2006,08,13,10,20,18.80
2006,08,13,10,21,18.90
2006,08,13,10,22,18.90
2006,08,13,10,23,18.90
2006,08,13,10,24,18.90
2006,08,13,10,25,18.90
2006,08,13,10,26,18.90
2006,08,13,10,27,18.90
2006,08,13,10,28,18.80
2006,08,13,10,29,18.80
2006,08,13,10,30,18.80
2006,08,13,10,31,18.90
2006,08,13,10,32,18.80
2006,08,13,10,33,18.90
2006,08,13,10,34,18.90
2006,08,13,10,35,19.00
2006,08,13,10,36,19.10
2006,08,13,10,37,19.00
2006,08,13,10,38,18.90
2006,08,13,10,39,18.90
2006,08,13,10,40,18.90
2006,08,13,10,41,19.10
2006,08,13,10,42,19.10
2006,08,13,10,43,19.10
2006,08,13,10,44,19.10
2006,08,13,10,45,19.10
2006,08,13,10,46,19.10
2006,08,13,10,47,19.00
2006,08,13,10,48,19.10
2006,08,13,10,49,19.10
2006,08,13,10,50,19.00
2006,08,13,10,51,18.90
2006,08,13,10,52,18.90
2006,08,13,10,53,18.90
2006,08,13,10,54,18.90
2006,08,13,10,55,18.90
2006,08,13,10,56,18.90
2006,08,13,10,57,18.90
2006,08,13,10,58,18.90
2006,08,13,10,59,18.90
2006,08,13,11,00,19.00
2006,08,13,11,01,19.10
2006,08,13,11,02,19.10
2006,08,13,11,03,19.10
2006,08,13,11,04,19.20
2006,08,13,11,05,19.30
2006,08,13,11,06,19.40
2006,08,13,11,07,19.40
2006,08,13,11,08,19.50
2006,08,13,11,09,19.50
2006,08,13,11,10,19.50
2006,08,13,11,11,19.40
2006,08,13,11,12,19.30
2006,08,13,11,13,19.20
2006,08,13,11,14,19.20
2006,08,13,11,15,19.30
2006,08,13,11,16,19.40
2006,08,13,11,17,19.30
2006,08,13,11,18,19.30
2006,08,13,11,19,19.20
2006,08,13,11,20,19.10
2006,08,13,11,21,19.10
2006,08,13,11,22,19.10
2006,08,13,11,23,19.10
2006,08,13,11,24,19.10
2006,08,13,11,25,19.10
2006,08,13,11,26,19.10
2006,08,13,11,27,19.20
2006,08,13,11,28,19.20
2006,08,13,11,29,19.30
2006,08,13,11,30,19.40
2006,08,13,11,31,19.40
2006,08,13,11,32,19.20
2006,08,13,11,33,19.10
2006,08,13,11,34,19.10
2006,08,13,11,35,19.10
2006,08,13,11,36,19.10
2006,08,13,11,37,19.10
2006,08,13,11,38,19.10
2006,08,13,11,39,19.10
2006,08,13,11,40,19.20
2006,08,13,11,41,19.20
2006,08,13,11,42,19.30
2006,08,13,11,43,19.40
2006,08,13,11,44,19.50
2006,08,13,11,45,19.60
2006,08,13,11,46,19.60
2006,08,13,11,47,19.80
2006,08,13,11,48,20.00
2006,08,13,11,49,20.10
2006,08,13,11,50,20.20
2006,08,13,11,51,20.20
2006,08,13,11,52,20.20
2006,08,13,11,53,20.30
2006,08,13,11,54,20.30
2006,08,13,11,55,20.30
2006,08,13,11,56,20.20
2006,08,13,11,57,20.10
2006,08,13,11,58,19.90
2006,08,13,11,59,19.90
2006,08,13,12,00,19.90
2006,08,13,12,01,20.00
2006,08,13,12,02,20.00
2006,08,13,12,03,19.90
2006,08,13,12,04,20.00
2006,08,13,12,05,20.10
2006,08,13,12,06,20.00
2006,08,13,12,07,20.00
2006,08,13,12,08,20.20
2006,08,13,12,09,20.20
2006,08,13,12,10,20.20
2006,08,13,12,11,20.20
2006,08,13,12,12,20.10
2006,08,13,12,13,20.00
2006,08,13,12,14,19.90
2006,08,13,12,15,19.90
2006,08,13,12,16,19.90
2006,08,13,12,17,19.90
2006,08,13,12,18,20.00
2006,08,13,12,19,20.10
2006,08,13,12,20,20.10
2006,08,13,12,21,20.10
2006,08,13,12,22,20.10
2006,08,13,12,23,20.20
2006,08,13,12,24,20.20
2006,08,13,12,25,20.20
2006,08,13,12,26,20.10
2006,08,13,12,27,20.20
2006,08,13,12,28,20.20
2006,08,13,12,29,20.10
2006,08,13,12,30,20.20
2006,08,13,12,31,20.20
2006,08,13,12,32,20.20
2006,08,13,12,33,20.20
2006,08,13,12,34,20.20
2006,08,13,12,35,20.20
2006,08,13,12,36,20.20
2006,08,13,12,37,20.30
2006,08,13,12,38,20.40
2006,08,13,12,39,20.60
2006,08,13,12,40,20.70
2006,08,13,12,41,20.90
2006,08,13,12,42,21.10
2006,08,13,12,43,21.20
2006,08,13,12,44,21.30
2006,08,13,12,45,21.20
2006,08,13,12,46,21.10
2006,08,13,12,47,20.90
2006,08,13,12,48,20.60
2006,08,13,12,49,20.60
2006,08,13,12,50,20.30
2006,08,13,12,51,20.30
2006,08,13,12,52,20.30
2006,08,13,12,53,20.30
2006,08,13,12,54,20.20
2006,08,13,12,55,20.20
2006,08,13,12,56,20.10
2006,08,13,12,57,20.10
2006,08,13,12,58,20.10
2006,08,13,12,59,20.00
2006,08,13,13,00,19.90
2006,08,13,13,01,20.00
2006,08,13,13,02,20.10
2006,08,13,13,03,20.20
2006,08,13,13,04,20.30
2006,08,13,13,05,20.50
2006,08,13,13,06,20.80
2006,08,13,13,07,20.80
2006,08,13,13,08,20.70
2006,08,13,13,09,20.70
2006,08,13,13,10,20.70
2006,08,13,13,11,20.70
2006,08,13,13,12,20.80
2006,08,13,13,13,20.80
2006,08,13,13,14,20.90
2006,08,13,13,15,21.00
2006,08,13,13,16,21.10
2006,08,13,13,17,21.10
2006,08,13,13,18,21.10
2006,08,13,13,19,21.00
2006,08,13,13,20,21.00
2006,08,13,13,21,20.80
2006,08,13,13,22,20.70
2006,08,13,13,23,20.70
2006,08,13,13,24,20.60
2006,08,13,13,25,20.60
2006,08,13,13,26,20.70
2006,08,13,13,27,20.90
2006,08,13,13,28,20.80
2006,08,13,13,29,20.70
2006,08,13,13,30,20.70
2006,08,13,13,31,20.60
2006,08,13,13,32,20.60
2006,08,13,13,33,20.70
2006,08,13,13,34,20.70
2006,08,13,13,35,20.70
2006,08,13,13,36,20.80
2006,08,13,13,37,20.80
2006,08,13,13,38,20.80
2006,08,13,13,39,20.90
2006,08,13,13,40,20.90
2006,08,13,13,41,20.90
2006,08,13,13,42,21.00
2006,08,13,13,43,21.10
2006,08,13,13,44,21.20
2006,08,13,13,45,21.30
2006,08,13,13,46,21.40
2006,08,13,13,47,21.50
2006,08,13,13,48,21.60
2006,08,13,13,49,21.80
2006,08,13,13,50,21.90
2006,08,13,13,51,22.00
2006,08,13,13,52,22.10
2006,08,13,13,53,22.10
2006,08,13,13,54,22.00
2006,08,13,13,55,21.90
2006,08,13,13,56,22.00
2006,08,13,13,57,22.00
2006,08,13,13,58,22.00
2006,08,13,13,59,22.10
2006,08,13,14,00,22.10
2006,08,13,14,01,22.30
2006,08,13,14,02,22.40
2006,08,13,14,03,22.50
2006,08,13,14,04,22.60
2006,08,13,14,05,22.50
2006,08,13,14,06,22.30
2006,08,13,14,07,22.30
2006,08,13,14,08,22.20
2006,08,13,14,09,22.20
2006,08,13,14,10,22.00
2006,08,13,14,11,21.90
2006,08,13,14,12,21.90
2006,08,13,14,13,21.90
2006,08,13,14,14,21.90
2006,08,13,14,15,21.90
2006,08,13,14,16,21.90
2006,08,13,14,17,21.90
2006,08,13,14,18,21.90
2006,08,13,14,19,21.90
2006,08,13,14,20,21.80
2006,08,13,14,21,21.90
2006,08,13,14,22,22.00
2006,08,13,14,23,22.00
2006,08,13,14,24,22.00
2006,08,13,14,25,22.00
2006,08,13,14,26,22.00
2006,08,13,14,27,21.90
2006,08,13,14,28,21.90
2006,08,13,14,29,22.00
2006,08,13,14,30,22.00
2006,08,13,14,31,21.90
2006,08,13,14,32,21.80
2006,08,13,14,33,21.80
2006,08,13,14,34,21.70
2006,08,13,14,35,21.60
2006,08,13,14,36,21.60
2006,08,13,14,37,21.60
2006,08,13,14,38,21.60
2006,08,13,14,39,21.60
2006,08,13,14,40,21.60
2006,08,13,14,41,21.60
2006,08,13,14,42,21.50
2006,08,13,14,43,21.40
2006,08,13,14,44,21.40
2006,08,13,14,45,21.50
2006,08,13,14,46,21.60
2006,08,13,14,47,21.80
2006,08,13,14,48,22.00
2006,08,13,14,49,22.30
2006,08,13,14,50,22.30
2006,08,13,14,51,22.40
2006,08,13,14,52,22.40
2006,08,13,14,53,22.50
2006,08,13,14,54,22.50
2006,08,13,14,55,22.40
2006,08,13,14,56,22.50
2006,08,13,14,57,22.50
2006,08,13,14,58,22.60
2006,08,13,14,59,22.60
2006,08,13,15,00,22.80
2006,08,13,15,01,22.90
2006,08,13,15,02,22.90
2006,08,13,15,03,22.90
2006,08,13,15,04,22.90
2006,08,13,15,05,22.80
2006,08,13,15,06,22.80
2006,08,13,15,07,22.80
2006,08,13,15,08,22.80
2006,08,13,15,09,22.80
2006,08,13,15,10,22.80
2006,08,13,15,11,22.70
2006,08,13,15,12,22.60
2006,08,13,15,13,22.60
2006,08,13,15,14,22.60
2006,08,13,15,15,22.60
2006,08,13,15,16,22.70
2006,08,13,15,17,22.60
2006,08,13,15,18,22.60
2006,08,13,15,19,22.60
2006,08,13,15,20,22.70
2006,08,13,15,21,22.70
2006,08,13,15,22,22.80
2006,08,13,15,23,22.80
2006,08,13,15,24,22.70
2006,08,13,15,25,22.70
2006,08,13,15,26,22.70
2006,08,13,15,27,22.60
2006,08,13,15,28,22.60
2006,08,13,15,29,22.60
2006,08,13,15,30,22.60
2006,08,13,15,31,22.60
2006,08,13,15,32,22.70
2006,08,13,15,33,22.80
2006,08,13,15,34,22.80
2006,08,13,15,35,22.70
2006,08,13,15,36,22.70
2006,08,13,15,37,22.70
2006,08,13,15,38,22.80
2006,08,13,15,39,22.90
2006,08,13,15,40,23.10
2006,08,13,15,41,23.10
2006,08,13,15,42,23.30
2006,08,13,15,43,23.40
2006,08,13,15,44,23.50
2006,08,13,15,45,23.60
2006,08,13,15,46,23.70
2006,08,13,15,47,23.60
2006,08,13,15,48,23.50
2006,08,13,15,49,23.40
2006,08,13,15,50,23.40
2006,08,13,15,51,23.40
2006,08,13,15,52,23.30
2006,08,13,15,53,23.30
2006,08,13,15,54,23.30
2006,08,13,15,55,23.30
2006,08,13,15,56,23.30
2006,08,13,15,57,23.40
2006,08,13,15,58,23.40
2006,08,13,15,59,23.40
2006,08,13,16,00,23.40
2006,08,13,16,01,23.40
2006,08,13,16,02,23.40
2006,08,13,16,03,23.40
2006,08,13,16,04,23.40
2006,08,13,16,05,23.40
2006,08,13,16,06,23.50
2006,08,13,16,07,23.50
2006,08,13,16,08,23.60
2006,08,13,16,09,23.60
2006,08,13,16,10,23.60
2006,08,13,16,11,23.60
2006,08,13,16,12,23.70
2006,08,13,16,13,23.70
2006,08,13,16,14,23.70
2006,08,13,16,15,23.70
2006,08,13,16,16,23.70
2006,08,13,16,17,23.80
2006,08,13,16,18,23.80
2006,08,13,16,19,23.80
2006,08,13,16,20,23.90
2006,08,13,16,21,24.00
2006,08,13,16,22,24.10
2006,08,13,16,23,24.20
2006,08,13,16,24,24.20
2006,08,13,16,25,24.30
2006,08,13,16,26,24.40
2006,08,13,16,27,24.50
2006,08,13,16,28,24.50
2006,08,13,16,29,24.50
2006,08,13,16,30,24.50
2006,08,13,16,31,24.50
2006,08,13,16,32,24.40
2006,08,13,16,33,24.30
2006,08,13,16,34,24.10
2006,08,13,16,35,24.10
2006,08,13,16,36,24.10
2006,08,13,16,37,24.10
2006,08,13,16,38,24.10
2006,08,13,16,39,24.00
2006,08,13,16,40,23.90
2006,08,13,16,41,23.90
2006,08,13,16,42,23.80
2006,08,13,16,43,23.70
2006,08,13,16,44,23.60
2006,08,13,16,45,23.60
2006,08,13,16,46,23.60
2006,08,13,16,47,23.60
2006,08,13,16,48,23.70
2006,08,13,16,49,23.80
2006,08,13,16,50,23.80
2006,08,13,16,51,24.00
2006,08,13,16,52,24.10
2006,08,13,16,53,24.20
2006,08,13,16,54,24.30
2006,08,13,16,55,24.40
2006,08,13,16,56,24.50
2006,08,13,16,57,24.60
2006,08,13,16,58,24.70
2006,08,13,16,59,24.80
2006,08,13,17,00,24.80
2006,08,13,17,01,24.80
2006,08,13,17,02,24.80
2006,08,13,17,03,24.90
2006,08,13,17,04,24.90
2006,08,13,17,05,24.90
2006,08,13,17,06,24.90
2006,08,13,17,07,24.90
2006,08,13,17,08,24.90
2006,08,13,17,09,24.90
2006,08,13,17,10,24.90
2006,08,13,17,11,24.90
2006,08,13,17,12,24.90
2006,08,13,17,13,24.90
2006,08,13,17,14,24.80
2006,08,13,17,15,24.80
2006,08,13,17,16,24.60
2006,08,13,17,17,24.50
2006,08,13,17,18,24.40
2006,08,13,17,19,24.40